Time,TemperatureF,DewpointF,PressureIn,WindDirection,WindDirectionDegrees,WindSpeedMPH,WindSpeedGustMPH,Humidity,HourlyPrecipIn,Conditions,Clouds,dailyrainin,SoftwareType,DateUTC
2013-01-11 00:00:00,40.0,29.6,30.46,SW,227,0.0,0.0,66,0.00,,,0.00,Wunderground v.1.15,2013-01-11 05:00:00,
2013-01-11 00:01:00,40.0,29.6,30.46,SW,227,0.0,0.0,66,0.00,,,0.00,Wunderground v.1.15,2013-01-11 05:01:00,
2013-01-11 00:04:00,40.0,29.6,30.46,SW,227,0.0,0.0,66,0.00,,,0.00,Wunderground v.1.15,2013-01-11 05:04:00,
2013-01-11 00:06:00,40.0,29.6,30.45,SW,227,0.0,0.0,66,0.00,,,0.00,Wunderground v.1.15,2013-01-11 05:06:00,
2013-01-11 00:12:00,39.9,29.5,30.45,SW,227,0.0,0.0,66,0.00,,,0.00,Wunderground v.1.15,2013-01-11 05:12:00,
2013-01-11 00:18:00,39.8,29.7,30.45,SW,227,0.0,0.0,67,0.00,,,0.00,Wunderground v.1.15,2013-01-11 05:18:00,
2013-01-11 00:23:00,39.7,29.6,30.46,SW,227,0.0,0.0,67,0.00,,,0.00,Wunderground v.1.15,2013-01-11 05:23:00,
2013-01-11 00:29:00,39.6,29.5,30.45,SW,227,0.0,0.0,67,0.00,,,0.00,Wunderground v.1.15,2013-01-11 05:29:00,
2013-01-11 00:35:00,39.6,29.5,30.45,SW,227,0.0,0.0,67,0.00,,,0.00,Wunderground v.1.15,2013-01-11 05:35:00,
2013-01-11 00:40:00,39.5,29.4,30.45,SW,227,0.0,0.0,67,0.00,,,0.00,Wunderground v.1.15,2013-01-11 05:40:00,
2013-01-11 00:45:00,39.5,29.4,30.45,SW,227,0.0,0.0,67,0.00,,,0.00,Wunderground v.1.15,2013-01-11 05:45:00,
2013-01-11 00:50:00,39.4,29.7,30.45,SW,227,0.0,0.0,68,0.00,,,0.00,Wunderground v.1.15,2013-01-11 05:50:00,
2013-01-11 00:56:00,39.5,29.4,30.44,NNE,20,0.0,2.0,67,0.00,,,0.00,Wunderground v.1.15,2013-01-11 05:56:00,
2013-01-11 01:02:00,39.4,29.3,30.44,NNE,20,0.0,1.0,67,0.00,,,0.00,Wunderground v.1.15,2013-01-11 06:02:00,
2013-01-11 01:08:00,39.3,29.0,30.44,NNE,20,0.0,2.0,67,0.00,,,0.00,weatherlink.com 1.10,2013-01-11 06:08:00,
2013-01-11 01:13:00,39.3,29.3,30.44,NNE,20,0.0,0.0,67,0.00,,,0.00,Wunderground v.1.15,2013-01-11 06:13:00,
2013-01-11 01:19:00,39.1,29.4,30.44,NNE,20,0.0,0.0,68,0.00,,,0.00,Wunderground v.1.15,2013-01-11 06:19:00,
2013-01-11 01:24:00,38.9,29.2,30.45,NNE,20,0.0,0.0,68,0.00,,,0.00,Wunderground v.1.15,2013-01-11 06:24:00,
2013-01-11 01:30:00,38.9,29.6,30.44,NNE,20,0.0,0.0,69,0.00,,,0.00,Wunderground v.1.15,2013-01-11 06:30:00,
2013-01-11 01:35:00,38.8,29.1,30.44,NNE,20,0.0,0.0,68,0.00,,,0.00,Wunderground v.1.15,2013-01-11 06:35:00,
2013-01-11 01:40:00,38.7,29.0,30.44,NNE,20,0.0,0.0,68,0.00,,,0.00,Wunderground v.1.15,2013-01-11 06:40:00,
2013-01-11 01:46:00,38.6,29.3,30.44,NNE,20,0.0,0.0,69,0.00,,,0.00,Wunderground v.1.15,2013-01-11 06:46:00,
2013-01-11 01:51:00,38.4,29.1,30.43,NNE,20,0.0,0.0,69,0.00,,,0.00,Wunderground v.1.15,2013-01-11 06:51:00,
2013-01-11 01:56:00,38.2,28.9,30.44,NNE,20,0.0,0.0,69,0.00,,,0.00,Wunderground v.1.15,2013-01-11 06:56:00,
2013-01-11 02:01:00,38.0,29.1,30.44,NNE,20,0.0,0.0,70,0.00,,,0.00,Wunderground v.1.15,2013-01-11 07:01:00,
2013-01-11 02:06:00,37.8,28.9,30.44,NNE,20,0.0,0.0,70,0.00,,,0.00,Wunderground v.1.15,2013-01-11 07:06:00,
2013-01-11 02:12:00,37.7,28.8,30.44,NNE,20,0.0,0.0,70,0.00,,,0.00,Wunderground v.1.15,2013-01-11 07:12:00,
2013-01-11 02:18:00,37.7,29.1,30.44,NNE,20,0.0,0.0,71,0.00,,,0.00,Wunderground v.1.15,2013-01-11 07:18:00,
2013-01-11 02:23:00,37.6,29.0,30.44,NNE,20,0.0,0.0,71,0.00,,,0.00,Wunderground v.1.15,2013-01-11 07:23:00,
2013-01-11 02:28:00,37.6,29.0,30.44,NNE,20,0.0,0.0,71,0.00,,,0.00,Wunderground v.1.15,2013-01-11 07:28:00,
2013-01-11 02:33:00,37.5,28.9,30.44,NNE,20,0.0,0.0,71,0.00,,,0.00,Wunderground v.1.15,2013-01-11 07:33:00,
2013-01-11 02:38:00,37.5,28.9,30.44,NNE,20,0.0,0.0,71,0.00,,,0.00,Wunderground v.1.15,2013-01-11 07:38:00,
2013-01-11 02:43:00,37.6,29.0,30.44,NNE,20,0.0,0.0,71,0.00,,,0.00,Wunderground v.1.15,2013-01-11 07:43:00,
2013-01-11 02:48:00,37.6,29.0,30.44,NNE,20,0.0,0.0,71,0.00,,,0.00,Wunderground v.1.15,2013-01-11 07:48:00,
2013-01-11 02:54:00,37.6,29.0,30.44,NNE,20,0.0,0.0,71,0.00,,,0.00,Wunderground v.1.15,2013-01-11 07:54:00,
2013-01-11 03:00:00,37.5,28.9,30.43,NNE,20,0.0,0.0,71,0.00,,,0.00,Wunderground v.1.15,2013-01-11 08:00:00,
2013-01-11 03:06:00,37.4,28.9,30.42,NNE,20,0.0,0.0,71,0.00,,,0.00,Wunderground v.1.15,2013-01-11 08:06:00,
2013-01-11 03:11:00,37.3,29.1,30.42,ESE,115,0.0,1.0,72,0.00,,,0.00,Wunderground v.1.15,2013-01-11 08:11:00,
2013-01-11 03:17:00,37.5,29.3,30.42,South,169,1.0,2.0,72,0.00,,,0.00,Wunderground v.1.15,2013-01-11 08:17:00,
2013-01-11 03:23:00,37.9,29.3,30.42,South,169,1.0,2.0,71,0.00,,,0.00,Wunderground v.1.15,2013-01-11 08:23:00,
2013-01-11 03:28:00,38.1,29.2,30.41,South,169,1.0,2.0,70,0.00,,,0.00,Wunderground v.1.15,2013-01-11 08:28:00,
2013-01-11 03:33:00,38.0,29.4,30.41,South,169,1.0,1.0,71,0.00,,,0.00,Wunderground v.1.15,2013-01-11 08:33:00,
2013-01-11 03:39:00,38.1,29.5,30.42,South,169,1.0,1.0,71,0.00,,,0.00,Wunderground v.1.15,2013-01-11 08:39:00,
2013-01-11 03:44:00,38.1,29.2,30.41,South,169,1.0,1.0,70,0.00,,,0.00,Wunderground v.1.15,2013-01-11 08:44:00,
2013-01-11 03:49:00,38.2,29.3,30.41,South,169,1.0,2.0,70,0.00,,,0.00,Wunderground v.1.15,2013-01-11 08:49:00,
2013-01-11 03:55:00,38.2,29.0,30.41,South,173,2.0,3.0,70,0.00,,,0.00,weatherlink.com 1.10,2013-01-11 08:55:00,
2013-01-11 04:00:00,38.5,29.2,30.41,South,186,1.0,4.0,69,0.00,,,0.00,Wunderground v.1.15,2013-01-11 09:00:00,
2013-01-11 04:06:00,38.7,29.4,30.41,South,176,2.0,4.0,69,0.00,,,0.00,Wunderground v.1.15,2013-01-11 09:06:00,
2013-01-11 04:11:00,38.9,29.6,30.41,South,172,2.0,2.0,69,0.00,,,0.00,Wunderground v.1.15,2013-01-11 09:11:00,
2013-01-11 04:17:00,39.0,29.3,30.41,South,172,2.0,2.0,68,0.00,,,0.00,Wunderground v.1.15,2013-01-11 09:17:00,
2013-01-11 04:23:00,39.2,29.5,30.41,South,171,3.0,5.0,68,0.00,,,0.00,Wunderground v.1.15,2013-01-11 09:23:00,
2013-01-11 04:28:00,39.5,29.8,30.40,South,183,3.0,5.0,68,0.00,,,0.00,Wunderground v.1.15,2013-01-11 09:28:00,
2013-01-11 04:33:00,39.5,29.8,30.40,South,171,3.0,3.0,68,0.00,,,0.00,Wunderground v.1.15,2013-01-11 09:33:00,
2013-01-11 04:39:00,39.5,29.8,30.39,South,172,3.0,3.0,68,0.00,,,0.00,Wunderground v.1.15,2013-01-11 09:39:00,
2013-01-11 04:45:00,39.5,29.8,30.39,South,181,3.0,4.0,68,0.00,,,0.00,Wunderground v.1.15,2013-01-11 09:45:00,
2013-01-11 04:50:00,39.4,29.7,30.38,South,181,3.0,3.0,68,0.00,,,0.00,Wunderground v.1.15,2013-01-11 09:50:00,
2013-01-11 04:56:00,39.3,29.0,30.38,South,181,2.0,4.0,68,0.00,,,0.00,weatherlink.com 1.10,2013-01-11 09:56:00,
2013-01-11 05:01:00,39.3,29.6,30.38,SE,136,2.0,4.0,68,0.00,,,0.00,Wunderground v.1.15,2013-01-11 10:01:00,
2013-01-11 05:08:00,39.3,29.6,30.38,SSW,198,3.0,5.0,68,0.00,,,0.00,Wunderground v.1.15,2013-01-11 10:08:00,
2013-01-11 05:14:00,39.4,29.7,30.38,South,173,3.0,4.0,68,0.00,,,0.00,Wunderground v.1.15,2013-01-11 10:14:00,
2013-01-11 05:19:00,39.5,29.8,30.38,South,181,3.0,7.0,68,0.00,,,0.00,Wunderground v.1.15,2013-01-11 10:19:00,
2013-01-11 05:25:00,39.4,30.0,30.38,SSE,167,3.0,6.0,69,0.00,,,0.00,weatherlink.com 1.10,2013-01-11 10:25:00,
2013-01-11 05:30:00,39.3,30.0,30.38,South,174,3.0,3.0,69,0.00,,,0.00,Wunderground v.1.15,2013-01-11 10:30:00,
2013-01-11 05:35:00,39.4,30.1,30.38,South,187,3.0,3.0,69,0.00,,,0.00,Wunderground v.1.15,2013-01-11 10:35:00,
2013-01-11 05:40:00,39.4,29.7,30.38,South,182,3.0,3.0,68,0.00,,,0.00,Wunderground v.1.15,2013-01-11 10:40:00,
2013-01-11 05:45:00,39.4,29.7,30.36,South,172,3.0,5.0,68,0.00,,,0.00,Wunderground v.1.15,2013-01-11 10:45:00,
2013-01-11 05:51:00,39.5,29.8,30.36,South,180,3.0,3.0,68,0.00,,,0.00,Wunderground v.1.15,2013-01-11 10:51:00,
2013-01-11 05:57:00,39.6,30.0,30.35,South,171,2.0,6.0,68,0.00,,,0.00,weatherlink.com 1.10,2013-01-11 10:57:00,
2013-01-11 06:02:00,39.5,29.8,30.35,South,173,3.0,4.0,68,0.00,,,0.00,Wunderground v.1.15,2013-01-11 11:02:00,
2013-01-11 06:07:00,39.4,29.7,30.35,South,175,3.0,5.0,68,0.00,,,0.00,Wunderground v.1.15,2013-01-11 11:07:00,
2013-01-11 06:13:00,39.4,30.0,30.36,South,184,3.0,5.0,68,0.00,,,0.00,weatherlink.com 1.10,2013-01-11 11:13:00,
2013-01-11 06:19:00,39.4,29.7,30.35,South,177,3.0,4.0,68,0.00,,,0.00,Wunderground v.1.15,2013-01-11 11:19:00,
2013-01-11 06:24:00,39.5,29.8,30.36,SSE,167,3.0,4.0,68,0.00,,,0.00,Wunderground v.1.15,2013-01-11 11:24:00,
2013-01-11 06:29:00,39.6,29.9,30.36,South,173,3.0,4.0,68,0.00,,,0.00,Wunderground v.1.15,2013-01-11 11:29:00,
2013-01-11 06:34:00,39.8,30.1,30.36,SSE,159,3.0,4.0,68,0.00,,,0.00,Wunderground v.1.15,2013-01-11 11:34:00,
2013-01-11 06:39:00,39.8,30.1,30.37,South,182,3.0,5.0,68,0.00,,,0.00,Wunderground v.1.15,2013-01-11 11:39:00,
2013-01-11 06:44:00,39.9,30.5,30.36,SSE,168,3.0,6.0,69,0.00,,,0.00,Wunderground v.1.15,2013-01-11 11:44:00,
2013-01-11 06:49:00,39.8,30.5,30.35,South,184,3.0,6.0,69,0.00,,,0.00,Wunderground v.1.15,2013-01-11 11:49:00,
2013-01-11 06:54:00,39.8,30.5,30.35,South,181,4.0,5.0,69,0.00,,,0.00,Wunderground v.1.15,2013-01-11 11:54:00,
2013-01-11 07:00:00,39.7,30.4,30.36,South,169,3.0,3.0,69,0.00,,,0.00,Wunderground v.1.15,2013-01-11 12:00:00,
2013-01-11 07:06:00,39.7,30.4,30.36,South,182,3.0,3.0,69,0.00,,,0.00,Wunderground v.1.15,2013-01-11 12:06:00,
2013-01-11 07:11:00,39.7,31.0,30.35,SSE,165,1.0,6.0,70,0.00,,,0.00,weatherlink.com 1.10,2013-01-11 12:11:00,
2013-01-11 07:16:00,39.7,30.7,30.35,South,169,3.0,3.0,70,0.00,,,0.00,Wunderground v.1.15,2013-01-11 12:16:00,
2013-01-11 07:21:00,39.8,30.5,30.36,South,177,3.0,3.0,69,0.00,,,0.00,Wunderground v.1.15,2013-01-11 12:21:00,
2013-01-11 07:26:00,39.8,30.5,30.35,South,173,3.0,3.0,69,0.00,,,0.00,Wunderground v.1.15,2013-01-11 12:26:00,
2013-01-11 07:32:00,39.9,30.5,30.36,SSW,206,2.0,2.0,69,0.00,,,0.00,Wunderground v.1.15,2013-01-11 12:32:00,
2013-01-11 07:37:00,40.0,30.6,30.36,SSW,194,2.0,4.0,69,0.00,,,0.00,Wunderground v.1.15,2013-01-11 12:37:00,
2013-01-11 07:43:00,40.0,30.6,30.36,South,188,2.0,3.0,69,0.00,,,0.00,Wunderground v.1.15,2013-01-11 12:43:00,
2013-01-11 07:48:00,40.0,30.6,30.35,South,185,2.0,5.0,69,0.00,,,0.00,Wunderground v.1.15,2013-01-11 12:48:00,
2013-01-11 07:53:00,40.1,30.4,30.35,South,170,2.0,3.0,68,0.00,,,0.00,Wunderground v.1.15,2013-01-11 12:53:00,
2013-01-11 07:58:00,40.1,30.7,30.35,South,180,2.0,3.0,69,0.00,,,0.00,Wunderground v.1.15,2013-01-11 12:58:00,
2013-01-11 08:04:00,40.0,30.6,30.35,South,180,2.0,3.0,69,0.00,,,0.00,Wunderground v.1.15,2013-01-11 13:04:00,
2013-01-11 08:10:00,40.0,30.3,30.35,South,180,1.0,2.0,68,0.00,,,0.00,Wunderground v.1.15,2013-01-11 13:10:00,
2013-01-11 08:15:00,40.0,30.6,30.35,South,180,2.0,2.0,69,0.00,,,0.00,Wunderground v.1.15,2013-01-11 13:15:00,
2013-01-11 08:21:00,40.0,30.6,30.35,South,180,1.0,1.0,69,0.00,,,0.00,Wunderground v.1.15,2013-01-11 13:21:00,
2013-01-11 08:26:00,40.0,30.3,30.35,South,180,1.0,2.0,68,0.00,,,0.00,Wunderground v.1.15,2013-01-11 13:26:00,
2013-01-11 08:32:00,40.2,30.5,30.34,South,180,1.0,1.0,68,0.00,,,0.00,Wunderground v.1.15,2013-01-11 13:32:00,
2013-01-11 08:37:00,40.3,30.9,30.34,South,180,2.0,3.0,69,0.00,,,0.00,Wunderground v.1.15,2013-01-11 13:37:00,
2013-01-11 08:42:00,40.4,31.0,30.35,South,180,2.0,2.0,69,0.00,,,0.00,Wunderground v.1.15,2013-01-11 13:42:00,
2013-01-11 08:47:00,40.5,30.8,30.35,South,180,1.0,2.0,68,0.00,,,0.00,Wunderground v.1.15,2013-01-11 13:47:00,
2013-01-11 08:53:00,40.7,31.0,30.34,South,170,2.0,3.0,68,0.00,,,0.00,Wunderground v.1.15,2013-01-11 13:53:00,
2013-01-11 08:58:00,40.8,31.1,30.33,South,170,2.0,3.0,68,0.00,,,0.00,Wunderground v.1.15,2013-01-11 13:58:00,
2013-01-11 09:04:00,40.9,31.1,30.33,SSW,198,2.0,3.0,68,0.00,,,0.00,Wunderground v.1.15,2013-01-11 14:04:00,
2013-01-11 09:10:00,41.1,31.3,30.32,SSE,167,2.0,2.0,68,0.00,,,0.00,Wunderground v.1.15,2013-01-11 14:10:00,
2013-01-11 09:15:00,41.1,31.0,30.32,South,186,2.0,2.0,67,0.00,,,0.00,Wunderground v.1.15,2013-01-11 14:15:00,
2013-01-11 09:21:00,41.2,30.7,30.32,South,186,2.0,2.0,66,0.00,,,0.00,Wunderground v.1.15,2013-01-11 14:21:00,
2013-01-11 09:26:00,41.3,31.2,30.31,South,186,1.0,2.0,67,0.00,,,0.00,Wunderground v.1.15,2013-01-11 14:26:00,
2013-01-11 09:31:00,41.3,31.2,30.32,South,181,1.0,3.0,67,0.00,,,0.00,Wunderground v.1.15,2013-01-11 14:31:00,
2013-01-11 09:37:00,41.4,30.9,30.32,South,181,1.0,3.0,66,0.00,,,0.00,Wunderground v.1.15,2013-01-11 14:37:00,
2013-01-11 09:42:00,41.5,31.0,30.31,SSE,159,1.0,2.0,66,0.00,,,0.00,Wunderground v.1.15,2013-01-11 14:42:00,
2013-01-11 09:48:00,41.7,31.5,30.31,SSE,159,1.0,2.0,67,0.00,,,0.00,Wunderground v.1.15,2013-01-11 14:48:00,
2013-01-11 09:53:00,41.8,31.3,30.32,SSE,159,1.0,2.0,66,0.00,,,0.00,Wunderground v.1.15,2013-01-11 14:53:00,
2013-01-11 09:59:00,42.0,31.1,30.31,South,175,2.0,2.0,65,0.00,,,0.00,Wunderground v.1.15,2013-01-11 14:59:00,
2013-01-11 10:04:00,42.2,31.3,30.31,South,177,2.0,2.0,65,0.00,,,0.00,Wunderground v.1.15,2013-01-11 15:04:00,
2013-01-11 10:10:00,42.3,31.7,30.31,South,177,1.0,1.0,66,0.00,,,0.00,Wunderground v.1.15,2013-01-11 15:10:00,
2013-01-11 10:16:00,42.3,31.4,30.30,South,177,1.0,2.0,65,0.00,,,0.00,Wunderground v.1.15,2013-01-11 15:16:00,
2013-01-11 10:21:00,42.4,31.5,30.29,South,185,1.0,3.0,65,0.00,,,0.00,Wunderground v.1.15,2013-01-11 15:21:00,
2013-01-11 10:27:00,42.4,31.8,30.30,South,181,1.0,3.0,66,0.00,,,0.00,Wunderground v.1.15,2013-01-11 15:27:00,
2013-01-11 10:32:00,42.5,31.6,30.29,South,173,1.0,2.0,65,0.00,,,0.00,Wunderground v.1.15,2013-01-11 15:32:00,
2013-01-11 10:38:00,42.6,32.4,30.29,South,189,2.0,4.0,67,0.00,,,0.00,Wunderground v.1.15,2013-01-11 15:38:00,
2013-01-11 10:43:00,42.8,31.5,30.28,South,178,2.0,4.0,64,0.00,,,0.00,Wunderground v.1.15,2013-01-11 15:43:00,
2013-01-11 10:48:00,42.9,31.6,30.28,South,183,2.0,4.0,64,0.00,,,0.00,Wunderground v.1.15,2013-01-11 15:48:00,
2013-01-11 10:53:00,43.0,31.6,30.28,South,183,2.0,3.0,64,0.00,,,0.00,Wunderground v.1.15,2013-01-11 15:53:00,
2013-01-11 10:58:00,43.3,31.9,30.27,South,169,2.0,3.0,64,0.00,,,0.00,Wunderground v.1.15,2013-01-11 15:58:00,
2013-01-11 11:04:00,43.5,32.1,30.27,SSE,168,2.0,3.0,64,0.00,,,0.00,Wunderground v.1.15,2013-01-11 16:04:00,
2013-01-11 11:10:00,43.7,31.9,30.26,South,169,2.0,2.0,63,0.00,,,0.00,Wunderground v.1.15,2013-01-11 16:10:00,
2013-01-11 11:15:00,43.8,32.0,30.26,South,176,2.0,2.0,63,0.00,,,0.00,Wunderground v.1.15,2013-01-11 16:15:00,
2013-01-11 11:20:00,43.8,32.4,30.26,South,176,1.0,1.0,64,0.00,,,0.00,Wunderground v.1.15,2013-01-11 16:20:00,
2013-01-11 11:25:00,43.9,33.3,30.25,South,190,1.0,1.0,66,0.00,,,0.00,Wunderground v.1.15,2013-01-11 16:25:00,
2013-01-11 11:31:00,44.0,34.0,30.24,South,172,0.0,3.0,68,0.00,,,0.00,weatherlink.com 1.10,2013-01-11 16:31:00,
2013-01-11 11:36:00,44.1,33.5,30.23,South,172,1.0,2.0,66,0.00,,,0.00,Wunderground v.1.15,2013-01-11 16:36:00,
2013-01-11 11:41:00,44.5,33.5,30.23,South,171,1.0,3.0,65,0.00,,,0.00,Wunderground v.1.15,2013-01-11 16:41:00,
2013-01-11 11:47:00,44.6,32.8,30.22,SSE,166,2.0,3.0,63,0.00,,,0.00,Wunderground v.1.15,2013-01-11 16:47:00,
2013-01-11 11:52:00,44.6,33.2,30.22,South,173,2.0,3.0,64,0.00,,,0.00,Wunderground v.1.15,2013-01-11 16:52:00,
2013-01-11 11:58:00,44.7,33.3,30.21,South,172,1.0,3.0,64,0.00,,,0.00,Wunderground v.1.15,2013-01-11 16:58:00,
2013-01-11 12:04:00,44.7,33.3,30.21,South,175,2.0,4.0,64,0.00,,,0.00,Wunderground v.1.15,2013-01-11 17:04:00,
2013-01-11 12:10:00,44.7,33.3,30.21,South,175,1.0,1.0,64,0.00,,,0.00,Wunderground v.1.15,2013-01-11 17:10:00,
2013-01-11 12:16:00,44.8,33.4,30.20,South,175,1.0,2.0,64,0.00,,,0.00,Wunderground v.1.15,2013-01-11 17:16:00,
2013-01-11 12:21:00,44.9,33.8,30.20,South,175,1.0,1.0,65,0.00,,,0.00,Wunderground v.1.15,2013-01-11 17:21:00,
2013-01-11 12:26:00,45.1,34.0,30.19,South,175,1.0,2.0,65,0.00,,,0.00,Wunderground v.1.15,2013-01-11 17:26:00,
2013-01-11 12:31:00,45.6,33.7,30.18,South,172,2.0,2.0,63,0.00,,,0.00,Wunderground v.1.15,2013-01-11 17:31:00,
2013-01-11 12:36:00,45.9,33.6,30.19,South,188,2.0,3.0,62,0.00,,,0.00,Wunderground v.1.15,2013-01-11 17:36:00,
2013-01-11 12:42:00,46.2,34.3,30.19,South,188,1.0,1.0,63,0.00,,,0.00,Wunderground v.1.15,2013-01-11 17:42:00,
2013-01-11 12:48:00,46.3,34.4,30.18,SSE,149,1.0,2.0,63,0.00,,,0.00,Wunderground v.1.15,2013-01-11 17:48:00,
2013-01-11 12:53:00,46.3,34.8,30.17,South,174,1.0,3.0,64,0.00,,,0.00,Wunderground v.1.15,2013-01-11 17:53:00,
2013-01-11 12:58:00,46.4,34.5,30.17,South,174,1.0,3.0,63,0.00,,,0.00,Wunderground v.1.15,2013-01-11 17:58:00,
2013-01-11 13:04:00,46.7,34.4,30.17,South,179,1.0,2.0,62,0.00,,,0.00,Wunderground v.1.15,2013-01-11 18:04:00,
2013-01-11 13:10:00,46.7,34.0,30.17,South,179,1.0,2.0,61,0.00,,,0.00,Wunderground v.1.15,2013-01-11 18:10:00,
2013-01-11 13:16:00,46.7,34.0,30.17,South,179,1.0,3.0,61,0.00,,,0.00,weatherlink.com 1.10,2013-01-11 18:16:00,
2013-01-11 13:21:00,46.6,33.9,30.17,South,179,0.0,0.0,61,0.00,,,0.00,Wunderground v.1.15,2013-01-11 18:21:00,
2013-01-11 13:27:00,46.6,33.9,30.16,South,179,0.0,2.0,61,0.00,,,0.00,Wunderground v.1.15,2013-01-11 18:27:00,
2013-01-11 13:32:00,46.5,33.8,30.16,South,179,0.0,0.0,61,0.00,,,0.00,Wunderground v.1.15,2013-01-11 18:32:00,
2013-01-11 13:37:00,46.6,33.9,30.16,South,179,0.0,1.0,61,0.00,,,0.00,Wunderground v.1.15,2013-01-11 18:37:00,
2013-01-11 13:43:00,46.7,34.8,30.14,South,179,0.0,1.0,63,0.00,,,0.00,Wunderground v.1.15,2013-01-11 18:43:00,
2013-01-11 13:48:00,46.9,35.4,30.15,South,179,0.0,1.0,64,0.00,,,0.00,Wunderground v.1.15,2013-01-11 18:48:00,
2013-01-11 13:53:00,47.1,35.1,30.15,South,179,0.0,1.0,63,0.00,,,0.00,Wunderground v.1.15,2013-01-11 18:53:00,
2013-01-11 13:58:00,47.2,35.6,30.15,South,179,0.0,1.0,64,0.00,,,0.00,Wunderground v.1.15,2013-01-11 18:58:00,
2013-01-11 14:04:00,47.2,35.6,30.14,South,179,0.0,1.0,64,0.00,,,0.00,Wunderground v.1.15,2013-01-11 19:04:00,
2013-01-11 14:10:00,47.3,35.3,30.14,South,179,0.0,0.0,63,0.00,,,0.00,Wunderground v.1.15,2013-01-11 19:10:00,
2013-01-11 14:15:00,47.3,35.3,30.14,South,179,0.0,0.0,63,0.00,,,0.00,Wunderground v.1.15,2013-01-11 19:15:00,
2013-01-11 14:21:00,47.3,35.7,30.15,South,179,0.0,2.0,64,0.00,,,0.00,Wunderground v.1.15,2013-01-11 19:21:00,
2013-01-11 14:27:00,47.2,37.2,30.14,South,179,1.0,2.0,68,0.00,,,0.01,Wunderground v.1.15,2013-01-11 19:27:00,
2013-01-11 14:32:00,47.0,39.1,30.14,South,179,0.0,1.0,74,0.15,,,0.02,Wunderground v.1.15,2013-01-11 19:32:00,
2013-01-11 14:37:00,46.6,39.8,30.14,South,179,0.0,1.0,77,0.33,,,0.04,Wunderground v.1.15,2013-01-11 19:37:00,
2013-01-11 14:42:00,46.2,40.4,30.14,South,179,0.0,0.0,80,0.12,,,0.05,Wunderground v.1.15,2013-01-11 19:42:00,
2013-01-11 14:48:00,45.8,40.6,30.13,South,179,0.0,0.0,82,0.09,,,0.05,Wunderground v.1.15,2013-01-11 19:48:00,
2013-01-11 14:53:00,45.2,39.7,30.14,South,179,0.0,0.0,81,0.05,,,0.06,Wunderground v.1.15,2013-01-11 19:53:00,
2013-01-11 14:58:00,44.9,40.4,30.14,South,179,0.0,0.0,84,0.05,,,0.06,Wunderground v.1.15,2013-01-11 19:58:00,
2013-01-11 15:04:00,44.5,40.0,30.14,South,179,0.0,0.0,84,0.05,,,0.06,Wunderground v.1.15,2013-01-11 20:04:00,
2013-01-11 15:10:00,44.3,40.7,30.14,South,179,0.0,0.0,87,0.00,,,0.06,Wunderground v.1.15,2013-01-11 20:10:00,
2013-01-11 15:15:00,44.0,40.7,30.14,South,179,0.0,0.0,88,0.00,,,0.06,Wunderground v.1.15,2013-01-11 20:15:00,
2013-01-11 15:21:00,43.5,40.5,30.12,South,179,0.0,0.0,89,0.00,,,0.07,Wunderground v.1.15,2013-01-11 20:21:00,
2013-01-11 15:26:00,43.3,40.6,30.12,South,179,0.0,1.0,90,0.12,,,0.08,Wunderground v.1.15,2013-01-11 20:26:00,
2013-01-11 15:31:00,43.3,40.8,30.12,South,179,0.0,1.0,91,0.07,,,0.08,Wunderground v.1.15,2013-01-11 20:31:00,
2013-01-11 15:36:00,43.3,41.1,30.12,South,179,0.0,1.0,92,0.04,,,0.08,Wunderground v.1.15,2013-01-11 20:36:00,
2013-01-11 15:41:00,43.3,41.1,30.11,South,179,0.0,0.0,92,0.00,,,0.08,Wunderground v.1.15,2013-01-11 20:41:00,
2013-01-11 15:47:00,43.4,41.5,30.11,South,179,0.0,1.0,93,0.00,,,0.08,Wunderground v.1.15,2013-01-11 20:47:00,
2013-01-11 15:53:00,43.6,41.7,30.11,South,179,0.0,0.0,93,0.00,,,0.08,Wunderground v.1.15,2013-01-11 20:53:00,
2013-01-11 15:59:00,43.7,41.8,30.11,South,179,0.0,1.0,93,0.00,,,0.08,Wunderground v.1.15,2013-01-11 20:59:00,
2013-01-11 16:04:00,43.8,41.9,30.11,South,179,0.0,0.0,93,0.00,,,0.08,Wunderground v.1.15,2013-01-11 21:04:00,
2013-01-11 16:10:00,43.8,41.9,30.11,South,179,0.0,0.0,93,0.00,,,0.08,Wunderground v.1.15,2013-01-11 21:10:00,
2013-01-11 16:15:00,43.8,42.2,30.11,South,179,0.0,0.0,94,0.00,,,0.08,Wunderground v.1.15,2013-01-11 21:15:00,
2013-01-11 16:20:00,43.8,41.9,30.11,South,179,0.0,0.0,93,0.00,,,0.08,Wunderground v.1.15,2013-01-11 21:20:00,
2013-01-11 16:25:00,43.7,41.8,30.11,South,179,0.0,1.0,93,0.00,,,0.08,Wunderground v.1.15,2013-01-11 21:25:00,
2013-01-11 16:31:00,43.7,41.8,30.11,South,179,1.0,2.0,93,0.00,,,0.08,Wunderground v.1.15,2013-01-11 21:31:00,
2013-01-11 16:36:00,43.7,41.8,30.10,South,179,1.0,2.0,93,0.00,,,0.08,Wunderground v.1.15,2013-01-11 21:36:00,
2013-01-11 16:41:00,43.7,41.8,30.10,South,179,1.0,2.0,93,0.00,,,0.08,Wunderground v.1.15,2013-01-11 21:41:00,
2013-01-11 16:46:00,43.7,41.8,30.10,South,179,1.0,2.0,93,0.00,,,0.08,Wunderground v.1.15,2013-01-11 21:46:00,
2013-01-11 16:52:00,43.6,41.7,30.10,South,179,0.0,1.0,93,0.00,,,0.08,Wunderground v.1.15,2013-01-11 21:52:00,
2013-01-11 16:57:00,43.6,41.7,30.10,South,179,0.0,1.0,93,0.00,,,0.08,Wunderground v.1.15,2013-01-11 21:57:00,
2013-01-11 17:03:00,43.4,42.0,30.11,South,179,1.0,1.0,93,0.00,,,0.08,weatherlink.com 1.10,2013-01-11 22:03:00,
2013-01-11 17:08:00,43.3,41.4,30.11,South,179,0.0,1.0,93,0.00,,,0.08,Wunderground v.1.15,2013-01-11 22:08:00,
2013-01-11 17:14:00,43.3,41.4,30.11,South,179,0.0,1.0,93,0.00,,,0.08,Wunderground v.1.15,2013-01-11 22:14:00,
2013-01-11 17:19:00,43.2,41.3,30.10,South,179,0.0,1.0,93,0.00,,,0.08,Wunderground v.1.15,2013-01-11 22:19:00,
2013-01-11 17:24:00,43.2,41.3,30.10,South,179,0.0,0.0,93,0.00,,,0.08,Wunderground v.1.15,2013-01-11 22:24:00,
2013-01-11 17:29:00,43.2,41.6,30.10,South,179,0.0,1.0,94,0.00,,,0.08,Wunderground v.1.15,2013-01-11 22:29:00,
2013-01-11 17:35:00,43.2,42.0,30.10,South,179,1.0,2.0,94,0.00,,,0.08,weatherlink.com 1.10,2013-01-11 22:35:00,
2013-01-11 17:40:00,43.2,41.6,30.10,South,179,1.0,1.0,94,0.00,,,0.08,Wunderground v.1.15,2013-01-11 22:40:00,
2013-01-11 17:46:00,43.2,41.6,30.09,South,179,1.0,1.0,94,0.00,,,0.08,Wunderground v.1.15,2013-01-11 22:46:00,
2013-01-11 17:51:00,43.2,41.6,30.09,South,179,1.0,2.0,94,0.00,,,0.08,Wunderground v.1.15,2013-01-11 22:51:00,
2013-01-11 17:57:00,43.1,41.5,30.10,South,179,1.0,2.0,94,0.00,,,0.08,Wunderground v.1.15,2013-01-11 22:57:00,
2013-01-11 18:02:00,42.9,41.3,30.10,South,179,1.0,2.0,94,0.00,,,0.08,Wunderground v.1.15,2013-01-11 23:02:00,
2013-01-11 18:07:00,42.8,41.2,30.10,South,179,0.0,2.0,94,0.00,,,0.08,Wunderground v.1.15,2013-01-11 23:07:00,
2013-01-11 18:13:00,42.6,41.0,30.09,South,179,0.0,1.0,94,0.00,,,0.08,Wunderground v.1.15,2013-01-11 23:13:00,
2013-01-11 18:19:00,42.6,41.0,30.09,South,179,1.0,1.0,94,0.00,,,0.08,Wunderground v.1.15,2013-01-11 23:19:00,
2013-01-11 18:25:00,42.5,41.2,30.09,South,179,1.0,1.0,95,0.00,,,0.08,Wunderground v.1.15,2013-01-11 23:25:00,
2013-01-11 18:30:00,42.4,41.1,30.09,South,179,0.0,0.0,95,0.00,,,0.08,Wunderground v.1.15,2013-01-11 23:30:00,
2013-01-11 18:35:00,42.3,40.7,30.09,South,179,0.0,1.0,94,0.00,,,0.08,Wunderground v.1.15,2013-01-11 23:35:00,
2013-01-11 18:40:00,42.2,40.6,30.09,South,179,0.0,0.0,94,0.00,,,0.08,Wunderground v.1.15,2013-01-11 23:40:00,
2013-01-11 18:46:00,42.0,40.7,30.10,South,179,0.0,0.0,95,0.00,,,0.08,Wunderground v.1.15,2013-01-11 23:46:00,
2013-01-11 18:51:00,41.9,40.6,30.10,South,179,0.0,0.0,95,0.00,,,0.08,Wunderground v.1.15,2013-01-11 23:51:00,
2013-01-11 18:56:00,41.9,40.6,30.10,South,179,0.0,1.0,95,0.00,,,0.08,Wunderground v.1.15,2013-01-11 23:56:00,
2013-01-11 19:02:00,41.9,40.6,30.10,South,179,0.0,0.0,95,0.00,,,0.08,Wunderground v.1.15,2013-01-12 00:02:00,
2013-01-11 19:08:00,41.9,40.6,30.11,South,179,0.0,0.0,95,0.00,,,0.08,Wunderground v.1.15,2013-01-12 00:08:00,
2013-01-11 19:13:00,41.6,40.3,30.10,South,179,0.0,0.0,95,0.00,,,0.08,Wunderground v.1.15,2013-01-12 00:13:00,
2013-01-11 19:18:00,41.4,40.1,30.10,South,179,0.0,0.0,95,0.00,,,0.08,Wunderground v.1.15,2013-01-12 00:18:00,
2013-01-11 19:24:00,41.3,40.0,30.10,South,179,0.0,0.0,95,0.00,,,0.08,Wunderground v.1.15,2013-01-12 00:24:00,
2013-01-11 19:29:00,41.4,40.1,30.09,South,179,0.0,0.0,95,0.00,,,0.08,Wunderground v.1.15,2013-01-12 00:29:00,
2013-01-11 19:34:00,41.3,40.0,30.09,South,179,0.0,1.0,95,0.00,,,0.08,Wunderground v.1.15,2013-01-12 00:34:00,
2013-01-11 19:39:00,41.4,40.3,30.08,South,179,0.0,1.0,96,0.00,,,0.08,Wunderground v.1.15,2013-01-12 00:39:00,
2013-01-11 19:45:00,41.3,40.2,30.09,South,179,0.0,0.0,96,0.00,,,0.08,Wunderground v.1.15,2013-01-12 00:45:00,
2013-01-11 19:50:00,41.3,40.0,30.09,South,179,0.0,1.0,96,0.00,,,0.08,weatherlink.com 1.10,2013-01-12 00:50:00,
2013-01-11 19:55:00,41.2,40.1,30.09,South,179,0.0,0.0,96,0.00,,,0.08,Wunderground v.1.15,2013-01-12 00:55:00,
2013-01-11 20:00:00,41.1,39.8,30.09,South,179,0.0,1.0,95,0.00,,,0.08,Wunderground v.1.15,2013-01-12 01:00:00,
2013-01-11 20:06:00,40.9,40.0,30.09,South,179,0.0,1.0,95,0.00,,,0.08,weatherlink.com 1.10,2013-01-12 01:06:00,
2013-01-11 20:12:00,40.7,39.4,30.09,South,179,0.0,0.0,95,0.00,,,0.08,Wunderground v.1.15,2013-01-12 01:12:00,
2013-01-11 20:17:00,40.7,39.6,30.09,South,179,0.0,1.0,96,0.00,,,0.08,Wunderground v.1.15,2013-01-12 01:17:00,
2013-01-11 20:22:00,40.5,39.2,30.10,South,179,0.0,0.0,95,0.00,,,0.08,Wunderground v.1.15,2013-01-12 01:22:00,
2013-01-11 20:28:00,40.3,39.0,30.09,South,179,0.0,0.0,95,0.00,,,0.08,Wunderground v.1.15,2013-01-12 01:28:00,
2013-01-11 20:33:00,40.4,39.4,30.09,South,179,0.0,1.0,96,0.00,,,0.08,Wunderground v.1.15,2013-01-12 01:33:00,
2013-01-11 20:38:00,40.5,39.4,30.10,South,179,0.0,1.0,96,0.00,,,0.08,Wunderground v.1.15,2013-01-12 01:38:00,
2013-01-11 20:44:00,40.4,39.4,30.10,South,179,0.0,0.0,96,0.00,,,0.08,Wunderground v.1.15,2013-01-12 01:44:00,
2013-01-11 20:50:00,40.3,39.3,30.10,South,179,0.0,0.0,96,0.00,,,0.08,Wunderground v.1.15,2013-01-12 01:50:00,
2013-01-11 20:55:00,40.4,39.4,30.10,South,179,0.0,1.0,96,0.00,,,0.08,Wunderground v.1.15,2013-01-12 01:55:00,
2013-01-11 21:00:00,40.4,39.4,30.10,South,179,0.0,2.0,96,0.00,,,0.08,Wunderground v.1.15,2013-01-12 02:00:00,
2013-01-11 21:06:00,40.4,39.0,30.10,South,179,0.0,2.0,96,0.00,,,0.08,weatherlink.com 1.10,2013-01-12 02:06:00,
2013-01-11 21:12:00,40.3,39.3,30.10,South,179,0.0,0.0,96,0.00,,,0.08,Wunderground v.1.15,2013-01-12 02:12:00,
2013-01-11 21:18:00,40.3,39.3,30.09,South,179,0.0,2.0,96,0.00,,,0.08,Wunderground v.1.15,2013-01-12 02:18:00,
2013-01-11 21:23:00,40.3,39.3,30.10,South,179,0.0,0.0,96,0.00,,,0.08,Wunderground v.1.15,2013-01-12 02:23:00,
2013-01-11 21:29:00,40.3,39.3,30.10,South,179,0.0,0.0,96,0.00,,,0.08,Wunderground v.1.15,2013-01-12 02:29:00,
2013-01-11 21:34:00,40.3,39.3,30.10,South,179,0.0,1.0,96,0.00,,,0.08,Wunderground v.1.15,2013-01-12 02:34:00,
2013-01-11 21:40:00,40.3,39.3,30.10,South,179,0.0,0.0,96,0.00,,,0.08,Wunderground v.1.15,2013-01-12 02:40:00,
2013-01-11 21:45:00,40.3,39.3,30.10,South,179,0.0,1.0,96,0.00,,,0.08,Wunderground v.1.15,2013-01-12 02:45:00,
2013-01-11 21:51:00,40.2,39.2,30.10,South,179,0.0,0.0,96,0.00,,,0.08,Wunderground v.1.15,2013-01-12 02:51:00,
2013-01-11 21:56:00,40.2,39.2,30.10,South,179,1.0,1.0,96,0.00,,,0.08,Wunderground v.1.15,2013-01-12 02:56:00,
2013-01-11 22:01:00,40.1,39.1,30.10,South,180,1.0,2.0,96,0.00,,,0.08,Wunderground v.1.15,2013-01-12 03:01:00,
2013-01-11 22:07:00,40.0,39.0,30.09,South,180,1.0,2.0,96,0.00,,,0.08,Wunderground v.1.15,2013-01-12 03:07:00,
2013-01-11 22:12:00,39.9,39.1,30.10,South,177,0.0,1.0,97,0.00,,,0.09,Wunderground v.1.15,2013-01-12 03:12:00,
2013-01-11 22:17:00,39.9,39.1,30.10,South,177,0.0,1.0,97,0.00,,,0.09,Wunderground v.1.15,2013-01-12 03:17:00,
2013-01-11 22:23:00,39.9,39.1,30.10,South,177,0.0,2.0,97,0.00,,,0.09,Wunderground v.1.15,2013-01-12 03:23:00,
2013-01-11 22:28:00,39.9,39.1,30.10,SSE,165,1.0,3.0,97,0.00,,,0.09,Wunderground v.1.15,2013-01-12 03:28:00,
2013-01-11 22:33:00,39.9,39.1,30.10,SSE,158,1.0,1.0,97,0.00,,,0.09,Wunderground v.1.15,2013-01-12 03:33:00,
2013-01-11 22:38:00,39.9,39.1,30.10,North,349,0.0,1.0,97,0.00,,,0.09,Wunderground v.1.15,2013-01-12 03:38:00,
2013-01-11 22:43:00,39.9,39.1,30.10,North,349,0.0,1.0,97,0.00,,,0.09,Wunderground v.1.15,2013-01-12 03:43:00,
2013-01-11 22:49:00,39.9,39.1,30.10,North,349,1.0,1.0,97,0.00,,,0.09,Wunderground v.1.15,2013-01-12 03:49:00,
2013-01-11 22:54:00,39.9,39.1,30.10,North,349,1.0,1.0,97,0.00,,,0.09,Wunderground v.1.15,2013-01-12 03:54:00,
2013-01-11 23:00:00,39.9,39.1,30.10,North,349,0.0,0.0,97,0.00,,,0.09,Wunderground v.1.15,2013-01-12 04:00:00,
2013-01-11 23:06:00,39.9,39.1,30.11,North,349,0.0,1.0,97,0.00,,,0.09,Wunderground v.1.15,2013-01-12 04:06:00,
2013-01-11 23:11:00,39.9,39.1,30.10,North,349,0.0,0.0,97,0.00,,,0.09,Wunderground v.1.15,2013-01-12 04:11:00,
2013-01-11 23:16:00,39.8,39.0,30.10,North,349,0.0,0.0,97,0.00,,,0.09,Wunderground v.1.15,2013-01-12 04:16:00,
2013-01-11 23:21:00,39.8,39.0,30.10,North,349,0.0,0.0,97,0.00,,,0.09,Wunderground v.1.15,2013-01-12 04:21:00,
2013-01-11 23:27:00,39.9,39.1,30.10,North,350,0.0,0.0,97,0.00,,,0.09,Wunderground v.1.15,2013-01-12 04:27:00,
2013-01-11 23:32:00,39.9,39.1,30.10,North,350,0.0,0.0,97,0.00,,,0.09,Wunderground v.1.15,2013-01-12 04:32:00,
2013-01-11 23:38:00,39.9,39.0,30.10,North,350,0.0,1.0,97,0.00,,,0.09,weatherlink.com 1.10,2013-01-12 04:38:00,
2013-01-11 23:43:00,39.9,39.1,30.09,North,350,0.0,0.0,97,0.00,,,0.09,Wunderground v.1.15,2013-01-12 04:43:00,
2013-01-11 23:49:00,39.8,39.0,30.09,North,350,0.0,0.0,97,0.00,,,0.09,Wunderground v.1.15,2013-01-12 04:49:00,
2013-01-11 23:54:00,39.8,39.0,30.09,North,350,0.0,0.0,97,0.00,,,0.09,Wunderground v.1.15,2013-01-12 04:54:00,
2013-01-11 23:59:00,39.7,38.9,30.09,North,350,0.0,0.0,97,0.00,,,0.09,Wunderground v.1.15,2013-01-12 04:59:00,